| time (UTC) | temp C | wind direction | speed KPH | gust KPH | rain 1hr cm | rain 24hr cm | rain mn cm | humidity % | barometer mb |
| 20260508100010 | 16 | 338 | 1.6 | 6.4 | 0.00 | 0.00 | 0.00 | 79 | 1010.5 |
| 20260508094508 | 16 | 330 | 1.6 | 6.4 | 0.00 | 0.00 | 0.00 | 78 | 1010.9 |
| 20260508093007 | 16 | 331 | 1.6 | 4.8 | 0.00 | 0.00 | 0.00 | 78 | 1010.8 |
| 20260508091512 | 16 | 331 | 0.0 | 3.2 | 0.00 | 0.00 | 0.00 | 78 | 1011.1 |
| 20260508090012 | 16 | 331 | 0.0 | 3.2 | 0.00 | 0.00 | 0.00 | 77 | 1010.9 |
| 20260508084505 | 16 | 331 | 0.0 | 3.2 | 0.00 | 0.00 | 0.00 | 77 | 1010.8 |
| 20260508083007 | 16 | 331 | 0.0 | 4.8 | 0.00 | 0.00 | 0.00 | 77 | 1011.0 |
| 20260508081508 | 16 | 331 | 0.0 | 3.2 | 0.00 | 0.00 | 0.00 | 77 | 1011.0 |
| 20260508080003 | 16 | 331 | 0.0 | 1.6 | 0.00 | 0.00 | 0.00 | 77 | 1011.0 |
| 20260508074503 | 16 | 331 | 0.0 | 3.2 | 0.00 | 0.00 | 0.00 | 77 | 1011.3 |
| 20260508073002 | 16 | 331 | 1.6 | 4.8 | 0.00 | 0.00 | 0.00 | 77 | 1011.3 |
| 20260508071503 | 16 | 331 | 0.0 | 4.8 | 0.00 | 0.00 | 0.00 | 77 | 1011.1 |
| 20260508070002 | 16 | 346 | 3.2 | 6.4 | 0.00 | 0.00 | 0.00 | 76 | 1011.0 |
| 20260508064559 | 16 | 349 | 1.6 | 4.8 | 0.00 | 0.00 | 0.00 | 76 | 1011.0 |
| 20260508063138 | 16 | 323 | 0.0 | 4.8 | 0.00 | 0.00 | 0.00 | 76 | 1011.7 |
| 20260508061556 | 16 | 315 | 1.6 | 3.2 | 0.00 | 0.00 | 0.00 | 76 | 1011.8 |
| 20260508060057 | 16 | 315 | 0.0 | 3.2 | 0.00 | 0.00 | 0.00 | 76 | 1012.0 |
| 20260508054555 | 16 | 315 | 0.0 | 4.8 | 0.00 | 0.00 | 0.00 | 76 | 1011.6 |
| 20260508053100 | 16 | 315 | 3.2 | 4.8 | 0.00 | 0.00 | 0.00 | 75 | 1012.1 |
| 20260508051617 | 16 | 316 | 1.6 | 6.4 | 0.00 | 0.00 | 0.00 | 75 | 1011.9 |
| 20260508050050 | 16 | 350 | 0.0 | 8.0 | 0.00 | 0.00 | 0.00 | 75 | 1011.8 |
| 20260508044549 | 16 | 321 | 3.2 | 8.0 | 0.00 | 0.00 | 0.00 | 75 | 1012.0 |
| 20260508043049 | 16 | 340 | 0.0 | 3.2 | 0.00 | 0.00 | 0.00 | 75 | 1011.4 |
| 20260508041549 | 16 | 328 | 0.0 | 1.6 | 0.00 | 0.00 | 0.00 | 74 | 1011.5 |
| 20260508040048 | 16 | 328 | 0.0 | 3.2 | 0.00 | 0.00 | 0.00 | 74 | 1011.7 |
| 20260508034549 | 16 | 327 | 0.0 | 1.6 | 0.00 | 0.00 | 0.00 | 74 | 1012.0 |
| 20260508033050 | 16 | 327 | 0.0 | 1.6 | 0.00 | 0.00 | 0.00 | 74 | 1012.5 |
| 20260508031547 | 16 | 327 | 0.0 | 1.6 | 0.00 | 0.00 | 0.00 | 74 | 1012.8 |
| 20260508030048 | 16 | 327 | 1.6 | 4.8 | 0.00 | 0.00 | 0.00 | 74 | 1012.9 |
| 20260508024546 | 16 | 327 | 0.0 | 3.2 | 0.00 | 0.00 | 0.00 | 73 | 1012.2 |
| 20260508023045 | 16 | 360 | 1.6 | 6.4 | 0.00 | 0.00 | 0.00 | 73 | 1011.5 |
| 20260508021551 | 17 | 325 | 1.6 | 9.7 | 0.00 | 0.00 | 0.00 | 73 | 1010.7 |
| 20260508020046 | 17 | 346 | 1.6 | 8.0 | 0.00 | 0.00 | 0.00 | 73 | 1010.4 |
| 20260508014545 | 17 | 36 | 1.6 | 8.0 | 0.00 | 0.00 | 0.00 | 73 | 1010.2 |
| 20260508013043 | 17 | 72 | 1.6 | 12.9 | 0.00 | 0.00 | 0.00 | 73 | 1010.3 |
| 20260508011549 | 17 | 355 | 0.0 | 8.0 | 0.00 | 0.00 | 0.00 | 73 | 1010.7 |
| 20260508010057 | 18 | 5 | 1.6 | 12.9 | 0.00 | 0.00 | 0.00 | 74 | 1011.1 |
| 20260508004541 | 18 | 312 | 3.2 | 9.7 | 0.00 | 0.00 | 0.00 | 73 | 1009.8 |
| 20260508003040 | 18 | 39 | 1.6 | 6.4 | 0.00 | 0.00 | 0.00 | 73 | 1010.6 |
| 20260508001539 | 18 | 28 | 1.6 | 6.4 | 0.00 | 0.00 | 0.00 | 73 | 1010.9 |
| 20260508000045 | 18 | 61 | 1.6 | 11.3 | 0.00 | 0.00 | 0.00 | 73 | 1011.7 |
| 20260507234539 | 19 | 63 | 3.2 | 12.9 | 0.00 | 0.00 | 0.00 | 73 | 1011.9 |
| 20260507233040 | 18 | 55 | 4.8 | 12.9 | 0.00 | 0.00 | 0.00 | 74 | 1012.0 |
| 20260507231535 | 18 | 339 | 3.2 | 12.9 | 0.00 | 0.00 | 0.00 | 75 | 1012.1 |
| 20260507230050 | 18 | 350 | 3.2 | 8.0 | 0.00 | 0.00 | 0.00 | 75 | 1012.0 |
| 20260507224536 | 18 | 334 | 3.2 | 9.7 | 0.00 | 0.00 | 0.00 | 75 | 1012.4 |
| 20260507223105 | 18 | 308 | 3.2 | 9.7 | 0.00 | 0.00 | 0.00 | 75 | 1012.4 |
| 20260507221532 | 18 | 300 | 4.8 | 12.9 | 0.00 | 0.00 | 0.00 | 76 | 1012.5 |
| 20260507220032 | 18 | 317 | 4.8 | 12.9 | 0.00 | 0.00 | 0.00 | 76 | 1012.8 |
| 20260507214530 | 18 | 328 | 4.8 | 12.9 | 0.00 | 0.00 | 0.00 | 77 | 1012.5 |
| 20260507213030 | 18 | 326 | 3.2 | 9.7 | 0.00 | 0.00 | 0.00 | 77 | 1012.7 |
| 20260507211530 | 18 | 319 | 3.2 | 12.9 | 0.00 | 0.00 | 0.00 | 77 | 1012.5 |
| 20260507210036 | 18 | 331 | 6.4 | 14.5 | 0.00 | 0.00 | 0.00 | 77 | 1012.8 |
| 20260507204533 | 18 | 340 | 6.4 | 22.5 | 0.00 | 0.00 | 0.00 | 78 | 1012.3 |
| 20260507203034 | 18 | 331 | 6.4 | 17.7 | 0.00 | 0.00 | 0.00 | 79 | 1012.3 |
| 20260507201524 | 18 | 351 | 8.0 | 17.7 | 0.00 | 0.00 | 0.00 | 79 | 1012.9 |
| 20260507200046 | 17 | 355 | 6.4 | 17.7 | 0.00 | 0.00 | 0.00 | 80 | 1013.1 |
| 20260507194523 | 17 | 360 | 4.8 | 22.5 | 0.00 | 0.00 | 0.00 | 81 | 1012.9 |
| 20260507193038 | 17 | 355 | 6.4 | 17.7 | 0.00 | 0.00 | 0.00 | 82 | 1013.2 |
| 20260507191520 | 17 | 311 | 6.4 | 16.1 | 0.00 | 0.00 | 0.00 | 83 | 1013.1 |
| 20260507190027 | 17 | 30 | 3.2 | 12.9 | 0.00 | 0.00 | 0.00 | 83 | 1013.9 |
| 20260507184516 | 17 | 16 | 1.6 | 16.1 | 0.00 | 0.00 | 0.00 | 83 | 1013.9 |
| 20260507183028 | 17 | 28 | 4.8 | 14.5 | 0.00 | 0.00 | 0.00 | 84 | 1014.3 |
| 20260507181513 | 16 | 346 | 6.4 | 20.9 | 0.00 | 0.00 | 0.00 | 84 | 1014.4 |
| 20260507180015 | 16 | 338 | 6.4 | 12.9 | 0.00 | 0.00 | 0.00 | 85 | 1014.2 |
| 20260507174513 | 16 | 360 | 6.4 | 14.5 | 0.00 | 0.00 | 0.00 | 86 | 1014.1 |
| 20260507173015 | 15 | 53 | 4.8 | 16.1 | 0.00 | 0.00 | 0.00 | 86 | 1014.1 |
| 20260507171508 | 15 | 323 | 8.0 | 17.7 | 0.00 | 0.00 | 0.00 | 86 | 1013.8 |
| 20260507170009 | 15 | 9 | 4.8 | 12.9 | 0.00 | 0.00 | 0.00 | 87 | 1014.3 |
| 20260507164508 | 15 | 326 | 4.8 | 16.1 | 0.00 | 0.00 | 0.00 | 87 | 1015.0 |
| 20260507163007 | 15 | 349 | 6.4 | 16.1 | 0.00 | 0.00 | 0.00 | 87 | 1014.7 |
| 20260507161509 | 15 | 338 | 8.0 | 19.3 | 0.00 | 0.00 | 0.00 | 87 | 1014.8 |
| 20260507160006 | 14 | 340 | 8.0 | 24.1 | 0.00 | 0.00 | 0.00 | 87 | 1014.6 |
| 20260507154505 | 14 | 5 | 8.0 | 19.3 | 0.00 | 0.00 | 0.00 | 87 | 1014.6 |
| 20260507153005 | 14 | 343 | 6.4 | 17.7 | 0.00 | 0.00 | 0.00 | 87 | 1014.5 |
| 20260507151505 | 14 | 330 | 8.0 | 16.1 | 0.00 | 0.00 | 0.00 | 87 | 1014.8 |
| 20260507150005 | 14 | 340 | 4.8 | 16.1 | 0.00 | 0.00 | 0.00 | 87 | 1014.7 |
| 20260507144503 | 14 | 323 | 4.8 | 16.1 | 0.00 | 0.00 | 0.00 | 87 | 1014.8 |
| 20260507143004 | 14 | 5 | 4.8 | 17.7 | 0.00 | 0.00 | 0.00 | 87 | 1014.9 |
| 20260507141502 | 14 | 340 | 6.4 | 19.3 | 0.00 | 0.00 | 0.00 | 87 | 1014.9 |
| 20260507140101 | 14 | 327 | 4.8 | 16.1 | 0.00 | 0.00 | 0.00 | 87 | 1015.2 |
| 20260507134608 | 14 | 335 | 6.4 | 14.5 | 0.00 | 0.00 | 0.00 | 87 | 1014.5 |
| 20260507133058 | 14 | 335 | 6.4 | 19.3 | 0.00 | 0.00 | 0.00 | 87 | 1014.6 |
| 20260507131555 | 14 | 337 | 6.4 | 17.7 | 0.00 | 0.00 | 0.00 | 87 | 1014.2 |
| 20260507130106 | 14 | 339 | 6.4 | 16.1 | 0.00 | 0.00 | 0.00 | 86 | 1013.8 |
| 20260507124615 | 14 | 344 | 6.4 | 17.7 | 0.00 | 0.00 | 0.00 | 86 | 1013.9 |
| 20260507123105 | 14 | 332 | 6.4 | 16.1 | 0.00 | 0.00 | 0.00 | 86 | 1013.6 |
| 20260507121558 | 14 | 322 | 6.4 | 19.3 | 0.00 | 0.00 | 0.00 | 86 | 1013.5 |
| 20260507120048 | 14 | 324 | 4.8 | 17.7 | 0.00 | 0.00 | 0.00 | 86 | 1013.4 |
| 20260507114550 | 14 | 338 | 4.8 | 22.5 | 0.00 | 0.00 | 0.00 | 86 | 1012.9 |
| 20260507113045 | 15 | 329 | 8.0 | 19.3 | 0.00 | 0.00 | 0.00 | 86 | 1012.8 |
| 20260507111542 | 15 | 335 | 8.0 | 19.3 | 0.00 | 0.00 | 0.00 | 85 | 1013.0 |
| 20260507110040 | 15 | 28 | 6.4 | 20.9 | 0.00 | 0.00 | 0.00 | 85 | 1012.9 |
| 20260507104538 | 15 | 340 | 8.0 | 17.7 | 0.00 | 0.00 | 0.00 | 85 | 1012.6 |
| 20260507103035 | 15 | 326 | 3.2 | 16.1 | 0.00 | 0.00 | 0.00 | 85 | 1012.5 |
| 20260507101540 | 15 | 325 | 3.2 | 16.1 | 0.00 | 0.00 | 0.00 | 85 | 1012.2 |